TimeEDT,TemperatureF,Dew PointF,Humidity,Sea Level PressureIn,VisibilityMPH,Wind Direction,Wind SpeedMPH,Gust SpeedMPH,PrecipitationIn,Events,Conditions,WindDirDegrees,DateUTC
12:54 AM,46.9,30.9,54,29.86,10.0,SSW,6.9,-,0.00,,Overcast,210,2013-10-27 04:54:00
1:54 AM,46.9,30.9,54,29.85,10.0,SSW,5.8,-,N/A,,Overcast,210,2013-10-27 05:54:00
2:54 AM,45.0,32.0,60,29.84,10.0,WSW,5.8,-,N/A,,Overcast,240,2013-10-27 06:54:00
3:54 AM,42.1,30.0,62,29.84,10.0,SSW,4.6,-,N/A,,Mostly Cloudy,200,2013-10-27 07:54:00
4:54 AM,36.0,30.0,79,29.84,10.0,WSW,4.6,-,N/A,,Clear,240,2013-10-27 08:54:00
5:54 AM,37.0,28.9,73,29.86,10.0,SSW,6.9,-,N/A,,Clear,210,2013-10-27 09:54:00
6:54 AM,39.0,28.9,67,29.88,10.0,Calm,Calm,-,N/A,,Clear,0,2013-10-27 10:54:00
7:54 AM,33.1,28.9,85,29.92,10.0,SE,3.5,-,N/A,,Clear,140,2013-10-27 11:54:00
8:54 AM,45.0,34.0,65,29.93,10.0,SW,3.5,-,N/A,,Clear,220,2013-10-27 12:54:00
9:54 AM,50.0,32.0,50,29.94,10.0,WNW,12.7,21.9,N/A,,Clear,300,2013-10-27 13:54:00
10:54 AM,52.0,32.0,47,29.95,10.0,NW,16.1,19.6,N/A,,Clear,310,2013-10-27 14:54:00
11:54 AM,53.1,30.9,43,29.96,10.0,WNW,9.2,17.3,N/A,,Clear,290,2013-10-27 15:54:00
12:54 PM,53.1,28.9,40,29.95,10.0,WNW,11.5,17.3,N/A,,Partly Cloudy,290,2013-10-27 16:54:00
1:54 PM,54.0,28.9,38,29.94,10.0,West,13.8,25.3,N/A,,Mostly Cloudy,270,2013-10-27 17:54:00
2:54 PM,53.1,30.0,41,29.94,10.0,WNW,10.4,19.6,N/A,,Overcast,290,2013-10-27 18:54:00
3:54 PM,55.0,30.0,38,29.95,10.0,WNW,11.5,16.1,N/A,,Mostly Cloudy,300,2013-10-27 19:54:00
4:54 PM,53.1,28.0,38,29.97,10.0,West,8.1,-,N/A,,Mostly Cloudy,280,2013-10-27 20:54:00
5:54 PM,51.1,28.9,43,30.00,10.0,West,4.6,-,N/A,,Overcast,280,2013-10-27 21:54:00
6:54 PM,48.9,28.0,44,30.02,10.0,WNW,4.6,-,N/A,,Mostly Cloudy,290,2013-10-27 22:54:00
7:54 PM,46.0,33.1,61,30.05,10.0,Calm,Calm,-,N/A,,Overcast,0,2013-10-27 23:54:00
8:54 PM,46.9,30.9,54,30.06,10.0,West,3.5,-,N/A,,Overcast,260,2013-10-28 00:54:00
9:54 PM,39.0,32.0,76,30.09,10.0,Calm,Calm,-,N/A,,Clear,0,2013-10-28 01:54:00
10:54 PM,37.0,30.9,79,30.10,10.0,SW,3.5,-,N/A,,Clear,220,2013-10-28 02:54:00
11:54 PM,34.0,30.0,85,30.11,10.0,WSW,3.5,-,N/A,,Clear,240,2013-10-28 03:54:00